Weather History for Marathon, FL

Change the Weather History Date:

Friday, August 2, 2013

  Actual Average Record
Temperature  
Mean Temperature 87 °F 86 °F  
Max Temperature 93 °F 91 °F 97 °F (2002)
Min Temperature 81 °F 80 °F 73 °F (2004)
Degree Days  
Heating Degree Days 0 0  
Month to date heating degree days 0 0  
Since 1 June heating degree days 0 0  
Since 1 July heating degree days 0 0  
Cooling Degree Days 22 21  
Month to date cooling degree days 45 41  
Year to date cooling degree days 3115 2798  
Since 1 June cooling degree days 1285 1255  
Growing Degree Days 36 (Base 50)    
Moisture  
Dew Point 74 °F    
Average Humidity 65    
Maximum Humidity 74    
Minimum Humidity 56    
Precipitation  
Precipitation 0.00 in 0.20 in 0.60 in (2001)
Month to date precipitation 0.00 0.39  
Year to date precipitation 37.05 22.22  
Snow  
Snow 0.00 in - - ()
Month to date snowfall 0.0  
Since 1 June snowfall 0.0  
Since 1 July snowfall 0.0  
Snow Depth 0.00 in    
Sea Level Pressure  
Sea Level Pressure 30.00 in    
Wind  
Wind Speed 3 mph (South)    
Max Wind Speed 8 mph    
Max Gust Speed 14 mph    
Visibility 10 miles    
Events      
T = Trace of Precipitation, MM = Missing Value Source: NWS Daily Summary

Daily Weather History Graph

Daily Weather History Graph

Search for Another Location

Airport:

Trip Planner

Search our weather history database for the weather conditions in past years. The results will help you decide how hot, cold, wet, or windy it might be!

Date:

Astronomy

Aug. 02, 2013 Rise Set
Actual Time 6:52 AM EDT 8:07 PM EDT
Civil Twilight 6:28 AM EDT 8:32 PM EDT
Nautical Twilight 5:59 AM EDT 9:01 PM EDT
Astronomical Twilight 5:29 AM EDT 9:30 PM EDT
Moon 3:17 AM EDT (8/2) 4:59 PM EDT (8/2)
Length of Visible Light 14h 03m
Length of Day
13h 14m
Waning Crescent, 16% of the Moon is Illuminated
Aug 2
Waning Crescent
Aug 6
New
Aug 14
First Quarter
Aug 20
Full
Aug 28
Last Quarter

Hourly Weather History & Observations

Time (EDT) Temp. Heat Index Dew Point Humidity Pressure Visibility Wind Dir Wind Speed Gust Speed Precip Events Conditions
12:53 AM 84.0 °F 89.6 °F 72.0 °F 67% 29.97 in 10.0 mi East 3.5 mph - N/A   Clear
1:39 AM 84.2 °F 90.9 °F 73.4 °F 70% 29.96 in 10.0 mi Calm Calm - N/A   Overcast
1:53 AM 84.0 °F 90.2 °F 73.0 °F 69% 29.95 in 10.0 mi Calm Calm - N/A   Mostly Cloudy
2:36 AM 84.2 °F 90.9 °F 73.4 °F 70% 29.95 in 10.0 mi Calm Calm - N/A   Overcast
2:53 AM 84.0 °F 90.2 °F 73.0 °F 69% 29.95 in 10.0 mi Calm Calm - N/A   Overcast
3:06 AM 84.2 °F 90.9 °F 73.4 °F 70% 29.95 in 10.0 mi Calm Calm - N/A   Mostly Cloudy
3:13 AM 84.2 °F 90.9 °F 73.4 °F 70% 29.95 in 10.0 mi Calm Calm - N/A   Mostly Cloudy
3:53 AM 82.9 °F 89.4 °F 73.9 °F 74% 29.94 in 10.0 mi Calm Calm - N/A   Mostly Cloudy
4:53 AM 82.0 °F 87.4 °F 73.0 °F 74% 29.94 in 10.0 mi Calm Calm - N/A   Clear
5:53 AM 82.0 °F 87.4 °F 73.0 °F 74% 29.95 in 10.0 mi Calm Calm - N/A   Clear
6:53 AM 82.0 °F 87.4 °F 73.0 °F 74% 29.95 in 10.0 mi Calm Calm - N/A   Clear
7:53 AM 86.0 °F 95.1 °F 75.0 °F 70% 29.97 in 10.0 mi Calm Calm - N/A   Clear
8:53 AM 87.1 °F 95.4 °F 73.9 °F 65% 29.99 in 10.0 mi Calm Calm - N/A   Clear
9:53 AM 89.1 °F 98.0 °F 73.9 °F 61% 30.01 in 10.0 mi SW 3.5 mph - N/A   Clear
10:53 AM 91.0 °F 100.4 °F 73.9 °F 57% 30.03 in 10.0 mi South 4.6 mph - N/A   Clear
11:53 AM 91.0 °F 100.4 °F 73.9 °F 57% 30.03 in 10.0 mi South 4.6 mph - N/A   Clear
12:53 PM 91.0 °F 101.6 °F 75.0 °F 59% 30.04 in 10.0 mi South 4.6 mph - N/A   Scattered Clouds
1:53 PM 91.0 °F 102.9 °F 75.9 °F 61% 30.03 in 10.0 mi Variable 3.5 mph - N/A   Clear
2:53 PM 91.0 °F 101.6 °F 75.0 °F 59% 30.01 in 8.0 mi Variable 4.6 mph - N/A   Clear
3:53 PM 90.0 °F 99.0 °F 73.9 °F 59% 30.01 in 8.0 mi South 5.8 mph - N/A   Clear
4:53 PM 89.1 °F 98.0 °F 73.9 °F 61% 30.01 in 6.0 mi South 5.8 mph - N/A   Haze
5:53 PM 89.1 °F 97.0 °F 73.0 °F 59% 30.01 in 10.0 mi Variable 3.5 mph - N/A   Clear
6:53 PM 87.1 °F 94.5 °F 73.0 °F 63% 30.02 in 10.0 mi Variable 4.6 mph - N/A   Clear
7:53 PM 87.1 °F 94.5 °F 73.0 °F 63% 30.03 in 10.0 mi South 5.8 mph - N/A   Clear
8:53 PM 86.0 °F 93.0 °F 73.0 °F 65% 30.05 in 10.0 mi SSE 4.6 mph - N/A   Clear
9:53 PM 86.0 °F 93.0 °F 73.0 °F 65% 30.06 in 10.0 mi South 5.8 mph - N/A   Clear
10:53 PM 86.0 °F 93.0 °F 73.0 °F 65% 30.07 in 10.0 mi South 4.6 mph - N/A   Clear
11:53 PM 86.0 °F 93.8 °F 73.9 °F 67% 30.08 in 10.0 mi South 4.6 mph - N/A   Clear